Temp
89 89 87 88 89 87 88 86 87 87 86 85 86 85 84 84 83 81 79 80 79 80 79 78 79 78 77 76 77 79 75 75 72 74 75 72 71 70 70 70 72 75 73
91 88 90 89 88 90 86 89 88 85 86 85 85 84 84 84 83 81 80 79 79 78 79 79 79 77 75 72 73 73 75 76 74 72 75 72 71 71 70 68 72 87 85
92 93 92 93 91 89 90 88 89 87 86 87 84 82 82 82 82 81 79 78 73 75 74 76 75 77 69 71 72 72 74 77 75 73 74 76 74 72 71 73 77 77 82
95 92 89 90 90 92 89 88 89 88 86 85 85 84 83 81 77 75 77 77 78 76 73 75 76 78 76 75 75 75 75 75 75 74 74 74 73 74 73 72 70 70 71
91 90 89 88 91 88 90 87 89 88 86 85 84 83 82 75 70 71 76 78 77 78 79 79 73 73 72 71 73 73 74 75 73 72 72 72 71 70 71 72 70 70 68
88 91 87 88 88 86 87 88 87 87 84 82 80 77 76 79 67 68 72 76 79 77 76 77 75 77 76 73 72 71 73 72 72 71 72 71 72 71 72 71 70 66 64
87 88 85 85 84 85 84 82 81 79 78 77 77 75 72 71 65 66 70 80 77 76 76 76 76 76 73 76 74 71 72 71 70 72 71 72 72 72 73 71 72 71 68
84 84 84 83 80 79 79 77 76 77 76 76 75 75 73 72 64 64 67 78 76 75 74 75 74 72 66 68 73 77 77 76 75 76 75 74 75 74 74 74 73 72 73
83 81 80 78 77 77 75 76 76 77 77 76 76 75 72 70 62 63 67 76 77 72 69 67 71 70 64 65 74 75 74 75 72 71 71 69 70 70 69 73 70 69 68
80 78 78 78 77 77 78 77 77 78 77 77 75 74 70 71 62 62 65 78 77 73 72 70 63 65 63 64 72 72 71 71 72 75 75 72 70 73 68 73 71 68 68
80 79 79 79 78 78 77 77 77 76 75 74 72 72 71 69 68 62 63 74 73 76 73 71 70 62 62 63 67 68 68 65 72 73 74 71 72 73 73 72 71 70 68
79 78 77 77 79 78 76 76 75 74 73 73 72 72 73 72 63 63 63 65 70 74 73 71 67 62 60 62 68 65 65 70 74 73 73 71 71 71 71 71 72 71 71
77 76 77 76 76 76 75 74 74 75 74 74 75 75 73 73 72 64 65 67 66 73 73 64 63 61 61 64 66 65 69 69 68 68 66 66 67 68 69 68 68 68 68
76 76 76 75 75 75 76 76 77 77 77 77 77 75 73 70 69 67 72 73 66 71 67 71 69 67 66 67 70 68 68 67 66 65 65 66 67 67 66 66 64 65 64
77 77 76 77 76 70 65 69 69 61 64 73 70 68 71 66 62 51 51 63 62 61 59 70 71 71 70 70 70 69 67 67 65 66 65 65 65 65 64 64 64 64 62
77 78 79 78 78 75 71 66 52 53 53 53 56 63 61 54 50 46 46 50 54 54 68 70 70 70 69 69 69 69 68 67 66 66 65 65 64 63 62 63 64 63 61
77 78 79 78 80 77 74 70 65 61 52 50 50 50 54 53 46 45 52 47 58 58 68 70 69 69 69 69 69 69 68 68 68 66 65 65 64 64 62 62 62 62 61
80 69 80 81 80 78 75 72 72 68 66 65 56 58 46 46 48 46 50 53 69 66 73 72 71 71 71 70 69 68 68 68 68 67 66 66 64 63 62 61 62 60 60
82 82 82 82 81 78 77 75 75 73 70 69 67 59 51 45 44 44 45 65 71 73 74 73 73 73 71 71 70 69 69 68 67 67 66 65 65 64 61 62 62 57 57
83 76 79 82 80 79 78 78 77 75 73 72 71 70 69 64 66 68 70 70 73 74 73 71 71 70 70 70 69 69 69 68 68 68 67 66 64 63 62 62 62 61 59
84 82 78 83 81 81 80 79 79 79 78 77 72 69 62 72 74 74 75 73 74 73 71 70 69 70 69 69 69 70 70 70 69 67 66 64 63 63 62 62 62 61 61
83 82 82 82 81 80 81 82 80 80 80 78 74 68 58 74 75 76 74 75 74 73 73 71 71 70 71 70 70 70 69 68 68 66 64 64 63 62 62 61 61 61 60
76 82 82 82 82 74 79 82 80 80 80 79 76 75 74 75 76 75 74 76 74 74 73 73 71 70 70 70 70 68 65 64 65 64 63 61 60 61 61 60 60 59 59
79 81 82 81 80 81 80 79 79 72 80 78 78 77 77 77 78 75 77 76 75 75 75 73 72 72 70 70 70 65 62 61 63 62 60 60 60 58 59 59 59 60 61
82 83 83 81 79 80 79 80 79 79 77 75 77 76 79 79 78 77 77 76 75 75 74 73 73 73 72 71 69 61 44 43 54 45 58 57 57 57 59 61 61 61 60
81 81 80 79 77 76 75 78 78 77 74 76 76 76 78 77 77 77 76 76 75 75 74 74 74 75 74 70 63 46 37 43 49 37 49 55 57 59 60 60 61 61 60
MSLP
1011.34 1011.70 1012.15 1012.59 1012.97 1013.37 1013.55 1013.71 1013.94 1014.15 1014.33 1014.50 1014.63 1014.83 1014.97 1015.04 1015.23 1015.61 1015.95 1016.17 1016.05 1016.09 1015.96 1016.07 1015.99 1015.92 1015.73 1015.85 1015.77 1015.58 1016.03 1016.00 1016.01 1015.94 1016.06 1016.72 1016.68 1017.07 1017.12 1017.69 1017.89 1017.88 1016.12
1010.42 1011.14 1011.41 1011.94 1012.30 1012.56 1013.02 1013.29 1013.50 1013.77 1013.94 1014.23 1014.49 1014.73 1014.84 1014.88 1014.97 1015.26 1015.47 1015.37 1015.59 1015.71 1015.71 1015.75 1015.63 1015.40 1015.56 1015.83 1015.89 1016.09 1015.59 1015.60 1015.87 1015.87 1016.09 1016.45 1016.22 1016.39 1017.55 1015.84 1016.78 1014.79 1014.37
1009.82 1010.43 1010.91 1011.10 1011.69 1012.17 1012.28 1012.71 1013.02 1013.28 1013.63 1014.03 1014.33 1014.54 1014.65 1014.63 1014.71 1014.94 1014.99 1014.96 1015.23 1015.49 1015.28 1015.47 1015.03 1015.18 1015.55 1014.95 1015.43 1015.67 1015.40 1015.22 1015.41 1015.98 1015.80 1015.39 1015.58 1015.91 1016.21 1016.27 1015.52 1014.42 1014.23
1008.97 1009.51 1010.02 1010.61 1010.96 1011.46 1011.90 1012.27 1012.61 1013.04 1013.48 1013.91 1014.08 1014.26 1014.46 1014.59 1014.99 1015.09 1015.02 1014.68 1014.97 1014.75 1015.11 1015.09 1014.98 1014.82 1014.88 1014.99 1015.12 1014.99 1015.32 1015.48 1015.41 1015.33 1015.65 1015.56 1015.40 1015.22 1015.24 1015.42 1015.28 1015.17 1014.97
1008.63 1009.07 1009.58 1010.20 1010.68 1011.19 1011.56 1011.94 1012.46 1013.01 1013.32 1013.72 1014.11 1014.47 1014.68 1015.17 1015.53 1015.53 1015.18 1014.95 1014.65 1014.67 1014.41 1014.37 1014.84 1014.95 1014.97 1014.95 1015.19 1015.39 1015.62 1015.57 1015.41 1015.41 1015.42 1015.39 1015.49 1015.23 1015.17 1015.11 1015.36 1015.25 1014.95
1008.54 1009.23 1009.85 1010.37 1010.93 1011.52 1011.95 1012.35 1012.82 1013.16 1013.55 1014.04 1014.43 1014.83 1015.19 1015.33 1015.68 1015.43 1015.19 1014.74 1014.50 1014.73 1014.75 1014.77 1015.05 1015.07 1015.30 1015.43 1015.53 1015.72 1015.75 1015.81 1015.78 1015.53 1015.49 1015.52 1015.49 1015.43 1015.31 1015.40 1015.53 1015.75 1016.03
1009.05 1009.68 1010.36 1010.81 1011.49 1012.01 1012.51 1013.06 1013.49 1013.87 1014.14 1014.50 1014.93 1015.31 1015.67 1015.91 1015.87 1015.54 1015.19 1014.81 1014.87 1015.00 1015.07 1015.03 1015.37 1015.62 1015.64 1015.57 1015.41 1015.41 1015.36 1015.39 1015.53 1015.65 1015.51 1015.34 1015.39 1015.41 1015.32 1015.36 1015.35 1015.43 1015.67
1009.45 1010.12 1010.82 1011.45 1012.17 1012.71 1013.27 1013.78 1014.14 1014.37 1014.73 1015.00 1015.25 1015.60 1015.92 1016.21 1016.13 1015.77 1015.38 1015.20 1015.39 1015.70 1015.82 1015.89 1015.93 1016.02 1016.15 1016.05 1015.69 1015.31 1015.21 1015.24 1015.26 1015.30 1015.23 1015.07 1015.19 1015.29 1015.31 1015.35 1015.39 1015.51 1015.39
1009.83 1010.72 1011.42 1011.90 1012.64 1013.34 1013.72 1014.08 1014.47 1014.73 1015.12 1015.41 1015.66 1015.85 1016.10 1016.36 1016.25 1015.93 1015.54 1015.45 1015.52 1016.15 1016.57 1016.55 1016.46 1016.69 1016.57 1016.37 1015.83 1015.53 1015.35 1015.36 1015.20 1015.23 1015.16 1015.09 1015.03 1015.20 1015.47 1015.51 1015.65 1015.59 1015.39
1010.39 1011.07 1011.79 1012.45 1013.07 1013.39 1013.86 1014.30 1014.75 1015.05 1015.29 1015.63 1016.05 1016.14 1016.51 1016.70 1016.57 1016.19 1015.69 1015.24 1015.59 1016.27 1016.80 1017.10 1017.30 1017.29 1017.06 1016.63 1016.33 1016.06 1015.93 1015.88 1015.56 1015.20 1015.09 1015.28 1015.44 1015.36 1015.69 1015.58 1015.82 1015.92 1015.91
1010.74 1011.45 1012.08 1012.64 1013.22 1013.74 1014.28 1014.73 1015.04 1015.24 1015.64 1015.98 1016.39 1016.66 1017.02 1017.06 1017.09 1016.75 1016.30 1016.12 1016.04 1016.16 1016.82 1017.44 1017.75 1017.62 1017.41 1017.19 1016.95 1016.86 1016.74 1016.35 1015.65 1015.29 1015.67 1015.82 1015.81 1015.94 1016.09 1016.01 1015.98 1016.11 1016.20
1011.19 1011.86 1012.45 1013.02 1013.46 1014.12 1014.56 1015.01 1015.47 1015.71 1016.04 1016.26 1016.45 1016.73 1017.20 1017.40 1017.39 1017.38 1017.08 1016.64 1016.32 1016.53 1017.17 1017.81 1018.03 1017.91 1017.73 1017.49 1017.31 1017.10 1016.64 1016.28 1015.93 1015.80 1015.91 1016.13 1016.27 1016.21 1016.29 1016.12 1016.01 1015.92 1015.88
1011.64 1012.12 1012.63 1013.16 1013.80 1014.48 1014.97 1015.42 1015.76 1015.87 1016.05 1015.97 1016.13 1016.36 1017.15 1017.47 1017.88 1017.91 1017.68 1017.49 1017.38 1017.55 1017.85 1018.01 1018.04 1018.07 1018.05 1017.87 1017.72 1017.57 1017.46 1017.36 1017.20 1017.02 1017.02 1017.11 1016.94 1016.75 1016.44 1016.42 1016.30 1016.17 1016.05
1011.71 1012.21 1012.86 1013.45 1014.14 1014.71 1015.09 1015.20 1015.46 1015.81 1015.65 1015.71 1016.00 1016.48 1017.09 1017.91 1018.63 1018.87 1018.41 1018.35 1018.23 1018.29 1018.18 1018.05 1018.01 1017.97 1017.94 1017.85 1017.85 1018.01 1018.03 1018.03 1018.02 1018.01 1017.88 1017.64 1017.43 1017.19 1017.02 1016.89 1016.76 1016.42 1016.24
1011.68 1012.27 1012.90 1013.56 1014.14 1015.08 1015.78 1015.87 1016.08 1016.80 1016.21 1016.16 1016.85 1017.13 1017.59 1018.71 1019.51 1019.68 1019.42 1019.00 1018.80 1018.61 1018.19 1017.81 1017.84 1017.77 1017.88 1017.92 1017.95 1018.10 1018.32 1018.48 1018.60 1018.39 1018.29 1018.17 1018.01 1017.81 1017.67 1017.39 1017.12 1016.83 1016.71
1011.53 1012.15 1012.63 1013.35 1014.00 1014.85 1015.73 1016.50 1016.90 1017.04 1016.63 1016.74 1017.21 1017.67 1018.57 1019.13 1019.47 1019.43 1019.29 1019.08 1018.79 1018.50 1018.07 1017.92 1018.03 1018.10 1018.21 1018.27 1018.25 1018.27 1018.34 1018.60 1018.82 1018.75 1018.69 1018.53 1018.49 1018.39 1018.26 1017.90 1017.59 1017.47 1017.23
1011.02 1011.65 1012.43 1012.94 1013.47 1014.23 1015.28 1016.25 1017.04 1017.87 1017.61 1017.73 1018.01 1018.55 1018.97 1019.45 1019.65 1019.59 1019.43 1019.11 1018.70 1018.50 1018.23 1017.89 1018.00 1018.18 1018.33 1018.44 1018.49 1018.49 1018.53 1018.59 1018.68 1018.77 1018.85 1018.71 1018.72 1018.73 1018.71 1018.46 1018.21 1017.92 1017.68
1010.71 1011.30 1011.98 1012.43 1013.07 1013.84 1014.76 1015.71 1016.59 1017.37 1018.00 1018.66 1018.98 1019.14 1019.27 1019.44 1019.58 1019.59 1019.41 1019.09 1018.61 1018.18 1017.84 1017.78 1017.86 1017.84 1018.02 1018.33 1018.46 1018.59 1018.64 1018.64 1018.48 1018.47 1018.57 1018.59 1018.70 1018.85 1018.75 1018.63 1018.40 1018.22 1018.02
1010.35 1010.86 1011.51 1012.04 1012.78 1013.45 1014.32 1015.08 1015.77 1016.47 1017.31 1018.21 1018.88 1019.19 1019.27 1019.36 1019.39 1019.36 1019.34 1019.11 1018.23 1017.81 1017.65 1017.73 1017.81 1017.85 1017.98 1018.16 1018.35 1018.52 1018.46 1018.43 1018.23 1018.17 1018.22 1018.37 1018.47 1018.59 1018.66 1018.53 1018.36 1018.14 1017.91
1009.96 1010.55 1011.06 1011.58 1012.29 1013.01 1013.64 1014.21 1014.69 1015.22 1016.04 1016.96 1017.62 1017.99 1018.64 1019.19 1019.14 1018.87 1018.66 1018.47 1017.97 1017.79 1017.87 1018.05 1018.20 1018.25 1018.19 1018.30 1018.39 1018.29 1018.17 1018.09 1017.99 1017.91 1017.95 1018.14 1018.32 1018.49 1018.61 1018.49 1018.28 1018.00 1017.74
1009.43 1010.21 1010.82 1011.37 1011.97 1012.53 1013.02 1013.27 1013.65 1014.33 1014.83 1015.36 1016.58 1016.92 1017.50 1017.79 1017.50 1017.49 1017.51 1017.69 1017.84 1018.03 1018.19 1018.37 1018.59 1018.62 1018.55 1018.41 1018.42 1018.29 1018.23 1018.09 1017.97 1018.07 1018.27 1018.49 1018.54 1018.62 1018.51 1018.33 1018.11 1017.99 1017.76
1009.52 1010.01 1010.65 1011.17 1012.03 1012.43 1012.84 1012.89 1013.21 1013.72 1014.21 1014.84 1016.07 1016.98 1017.15 1017.15 1017.17 1016.93 1017.29 1017.51 1017.81 1018.10 1018.25 1018.48 1018.63 1018.62 1018.58 1018.52 1018.51 1018.60 1018.59 1018.52 1018.31 1018.49 1018.77 1018.93 1018.93 1018.87 1018.65 1018.41 1018.18 1017.88 1017.60
1010.00 1010.43 1010.78 1011.21 1011.95 1012.51 1012.92 1013.24 1013.51 1013.63 1013.90 1014.32 1015.13 1016.05 1016.51 1016.46 1016.59 1016.88 1017.34 1017.49 1017.76 1017.95 1018.15 1018.35 1018.51 1018.51 1018.46 1018.57 1018.63 1018.72 1019.23 1019.41 1019.22 1019.17 1019.34 1019.34 1019.25 1019.03 1018.72 1018.41 1018.15 1017.70 1017.16
1009.79 1010.26 1010.61 1011.03 1011.71 1012.47 1012.93 1013.38 1013.79 1013.73 1013.85 1014.35 1014.69 1015.22 1015.59 1015.91 1016.19 1016.83 1017.23 1017.31 1017.61 1017.82 1018.09 1018.26 1018.33 1018.29 1018.46 1018.58 1018.77 1019.41 1019.79 1019.94 1019.77 1019.83 1019.85 1019.56 1019.33 1019.22 1018.87 1018.44 1017.85 1017.14 1016.73
1009.27 1009.71 1010.22 1010.99 1011.61 1012.25 1012.73 1013.39 1013.79 1014.16 1014.21 1014.52 1014.86 1015.14 1015.33 1015.71 1015.89 1016.36 1016.82 1017.10 1017.34 1017.54 1017.76 1017.90 1017.90 1017.98 1018.21 1018.42 1018.59 1019.49 1020.05 1020.03 1020.13 1020.33 1019.96 1019.77 1019.55 1019.17 1018.61 1017.90 1017.34 1016.90 1016.50
1009.07 1009.39 1009.99 1011.20 1012.07 1012.37 1012.62 1013.22 1013.79 1014.22 1014.47 1014.52 1014.85 1015.04 1015.26 1015.47 1015.71 1016.07 1016.51 1016.84 1017.03 1017.16 1017.40 1017.47 1017.54 1017.55 1017.79 1018.17 1018.93 1019.54 1019.87 1020.05 1020.18 1020.41 1020.26 1019.76 1019.36 1018.79 1018.17 1017.61 1016.99 1016.37 1015.99
Wind_Speed
12 12 12 11 11 10 8 6 5 4 4 4 4 4 5 6 7 6 6 8 8 6 8 7 7 8 5 5 5 6 5 5 5 3 2 2 3 2 3 6 25 13 10
12 9 10 11 8 10 10 9 8 7 6 5 4 5 6 6 6 7 8 9 8 8 9 10 8 6 5 6 4 12 10 6 0 4 1 3 6 10 11 18 18 14 10
12 14 13 12 11 9 7 9 7 6 5 4 5 7 8 7 6 6 6 4 7 6 8 10 12 3 4 6 6 6 6 4 1 2 3 2 4 3 5 9 4 6 7
13 13 12 10 9 10 9 6 6 4 5 4 5 5 4 5 6 6 7 7 8 8 11 11 12 7 7 9 9 8 5 4 5 3 2 2 1 2 2 3 3 2 4
7 8 7 6 3 6 2 6 5 4 5 5 2 2 4 8 6 7 6 6 5 4 5 5 6 6 7 5 3 5 4 2 4 3 2 2 2 3 3 2 1 2 5
8 4 8 6 6 5 3 3 2 1 3 3 6 9 8 6 11 12 9 7 5 5 5 4 4 4 6 3 1 1 2 2 4 2 2 2 3 2 1 1 2 1 1
7 5 8 7 6 3 5 5 6 8 8 8 7 7 7 7 12 12 13 5 7 7 8 5 6 7 9 6 3 5 5 6 6 2 3 4 3 3 3 3 2 2 3
8 8 8 8 8 8 7 7 8 6 6 5 6 7 6 5 11 11 13 3 8 9 9 8 7 7 7 7 6 2 2 5 2 1 3 4 3 4 4 2 3 3 3
10 10 10 9 9 7 5 6 6 6 6 6 5 6 6 5 12 12 9 3 7 9 7 8 7 7 9 10 5 6 6 5 1 1 3 3 3 2 3 3 4 4 3
11 10 9 8 7 6 7 7 6 5 5 6 6 6 7 5 10 12 11 3 4 8 6 8 12 7 8 9 8 7 7 6 6 5 4 3 2 3 4 4 3 3 1
12 10 9 9 9 8 8 6 4 5 7 6 7 6 5 5 6 10 14 6 4 7 8 6 5 8 8 10 9 6 4 6 8 4 2 3 4 5 5 4 5 5 5
11 11 10 9 8 7 7 6 6 6 5 5 6 7 5 4 6 8 9 10 11 8 7 4 3 6 9 10 8 11 14 11 7 6 6 6 5 4 4 4 4 4 3
12 12 10 10 9 8 7 6 5 5 6 6 5 5 7 4 4 7 9 11 12 7 4 4 4 2 4 3 9 11 11 6 6 7 6 5 4 4 6 5 6 7 6
12 12 11 10 9 8 6 7 3 0 3 3 3 5 6 8 6 6 5 2 5 5 1 3 2 2 3 4 4 6 4 5 4 4 4 4 4 5 4 4 4 4 2
12 12 11 9 8 8 7 4 7 6 3 7 7 6 7 6 2 2 4 4 4 4 6 2 1 2 3 3 3 4 4 5 5 4 4 4 4 4 4 5 4 4 4
12 10 9 8 9 8 8 8 14 7 13 16 15 10 7 9 4 3 4 6 6 6 3 3 3 3 4 3 3 3 4 5 2 4 4 4 4 4 4 5 4 4 4
12 11 9 8 8 8 8 7 7 7 14 14 14 11 11 8 3 2 7 11 10 8 3 3 3 3 3 3 3 3 2 2 1 3 3 3 4 4 5 4 4 4 4
12 12 9 8 8 8 8 8 7 6 6 5 4 5 5 5 2 3 7 8 4 1 1 2 2 1 1 3 3 3 3 3 2 2 2 1 3 3 4 4 5 4 5
10 10 9 8 9 10 9 9 8 8 8 7 5 2 3 3 4 6 1 3 5 4 2 2 2 2 3 3 2 2 3 4 3 2 3 2 1 2 3 4 5 7 6
10 12 9 9 8 10 10 10 9 9 10 9 9 8 6 4 4 5 5 5 2 3 5 4 5 5 4 3 3 4 3 4 4 2 1 3 3 3 4 5 5 6 5
9 9 8 8 9 9 9 9 9 8 7 7 5 7 11 7 6 6 2 4 3 4 4 4 4 4 4 4 4 4 5 4 4 4 4 5 5 5 4 5 6 7 7
8 9 7 8 7 7 8 7 8 7 7 9 8 5 5 3 5 3 4 2 4 3 3 3 2 3 4 4 5 6 6 6 4 6 6 6 6 6 6 6 7 7 7
7 9 8 8 7 6 5 6 6 6 6 6 11 7 5 5 4 4 4 3 3 2 3 2 2 2 3 4 4 5 7 7 7 6 6 6 6 6 6 7 8 8 8
8 11 9 9 7 7 6 5 4 4 6 4 4 7 6 4 4 6 2 4 3 3 2 1 1 2 3 3 3 6 5 4 5 6 6 5 7 8 8 8 9 9 8
10 10 10 8 7 7 6 6 5 4 3 5 4 4 5 6 4 5 4 4 3 1 1 1 1 2 1 0 1 9 5 9 6 4 5 6 7 10 10 8 9 9 9
10 10 9 7 5 3 5 5 6 5 3 4 4 4 2 3 3 4 3 3 3 2 3 0 2 2 2 6 10 10 8 6 3 3 3 5 7 8 8 10 14 9 10
Wind_Direction
202 215 199 207 210 212 232 226 239 249 250 258 255 255 258 230 211 212 234 275 276 259 258 274 232 241 253 283 266 241 252 222 226 275 141 211 155 143 58 312 284 246 202
194 199 214 204 209 209 206 227 205 213 218 223 231 257 260 268 273 239 226 242 297 271 272 270 251 252 357 337 343 295 283 270 157 290 228 150 217 215 192 195 243 238 187
195 197 216 205 199 226 231 198 226 201 194 222 212 238 251 266 281 282 260 222 236 289 286 295 326 207 177 250 261 265 269 257 305 227 268 241 220 191 243 234 276 317 335
201 201 189 206 196 201 209 216 178 200 169 219 254 286 329 314 23 3 334 288 255 212 225 239 240 235 216 219 223 252 276 299 289 241 241 269 351 285 253 260 286 18 329
207 169 152 167 171 163 257 137 128 158 197 218 281 305 32 63 25 347 335 304 336 297 268 270 36 79 69 49 31 25 352 291 288 355 316 315 336 351 337 54 35 4 2
143 128 116 116 100 95 74 78 96 283 68 93 69 66 42 52 4 355 348 327 23 38 23 51 112 133 87 48 11 213 54 2 324 357 13 334 317 278 309 287 125 97 349
125 116 117 112 109 106 95 85 94 80 76 75 91 88 62 30 4 359 351 40 57 41 39 31 72 49 25 357 317 311 302 248 213 301 299 304 328 338 314 303 299 192 197
127 119 117 106 102 97 97 91 84 81 79 83 76 79 63 40 3 2 347 325 77 59 40 31 48 56 28 354 315 350 42 34 56 253 260 293 324 356 0 275 292 315 287
129 112 115 110 106 116 114 126 120 102 98 86 72 94 70 30 2 2 353 340 106 85 64 35 20 38 359 342 349 4 74 65 109 280 292 262 270 325 29 350 27 4 345
126 114 118 131 148 128 102 98 102 122 131 116 109 88 77 30 12 0 7 21 121 123 123 83 50 36 1 9 27 22 25 8 330 329 290 265 271 53 47 50 42 28 3
117 122 116 109 104 108 104 119 125 94 88 102 103 91 74 30 22 11 19 29 355 102 87 66 51 14 34 33 41 25 349 312 297 268 22 97 62 66 45 25 35 27 13
118 121 118 126 125 119 119 101 103 116 126 140 150 134 98 73 21 30 24 32 31 66 88 98 87 29 28 38 26 357 350 358 3 25 37 34 25 29 19 352 359 359 336
132 128 133 111 111 121 125 135 152 179 168 183 193 135 136 130 83 12 34 46 45 64 79 112 148 182 323 336 22 23 32 15 15 26 22 19 7 12 356 22 8 348 357
138 132 121 121 129 141 165 191 156 182 195 119 121 115 87 61 39 9 347 57 83 79 38 243 193 117 63 87 76 59 28 27 29 20 13 9 355 3 357 13 352 313 327
140 138 143 139 150 91 63 47 90 52 17 80 72 60 96 88 64 8 5 25 10 350 305 201 145 52 64 49 68 97 77 50 14 2 10 4 359 357 353 353 323 340 351
148 152 149 161 145 134 103 83 49 56 70 75 84 89 69 101 124 54 15 344 330 356 316 72 75 59 51 36 30 39 85 83 20 13 0 350 357 351 357 327 341 348 330
155 158 154 161 170 150 131 121 112 58 61 65 78 82 92 130 123 7 2 352 328 355 233 101 85 53 40 19 14 21 38 93 177 68 342 343 11 353 342 328 343 332 346
163 153 165 166 144 147 139 139 133 134 117 105 59 119 131 157 182 4 2 336 295 233 234 99 39 102 135 61 11 30 347 351 272 125 262 24 18 346 330 341 326 337 324
169 159 174 165 157 149 149 153 160 154 145 143 144 223 209 250 319 304 245 264 311 2 33 46 33 353 42 26 26 330 285 274 279 247 251 115 42 331 338 322 328 319 325
168 165 188 161 154 155 158 172 170 169 159 165 181 182 170 169 217 230 232 251 3 2 39 16 19 12 10 1 313 275 278 300 299 233 47 62 38 8 332 327 321 318 318
161 169 186 162 163 170 171 185 163 167 172 176 84 125 163 204 233 178 168 93 49 31 45 40 9 337 321 339 346 336 327 331 339 38 38 28 13 345 329 324 324 333 312
173 165 178 163 171 174 182 182 154 170 180 130 127 134 133 219 262 111 108 132 81 62 44 48 336 2 344 343 351 348 342 328 9 45 31 5 349 341 329 329 321 315 316
157 169 185 152 178 162 180 175 168 181 168 166 141 142 172 194 220 103 129 118 104 89 61 29 4 327 16 20 327 27 43 28 18 19 8 354 335 318 325 319 316 300 294
175 177 167 167 159 173 187 159 184 174 154 140 131 158 164 139 153 117 235 114 102 70 39 4 356 321 53 2 47 79 66 32 20 23 359 328 329 328 316 300 290 295 312
178 173 160 159 148 180 150 173 161 161 156 136 156 155 167 179 169 154 159 119 121 192 23 317 328 350 332 60 41 104 106 69 61 352 344 332 309 299 287 299 314 313 311
175 158 138 124 143 169 139 177 159 165 191 162 163 151 176 158 164 155 150 171 182 143 278 216 296 301 326 83 108 123 123 99 65 24 320 300 294 296 304 301 296 306 312